When you browse on this site, cookies collect data to enhance your experience and personalize the content and advertising you see.
Visit our Privacy Policy to learn more. By continuing to use the site, you agree to this use of cookies and data.
  • In Deutschland
  • Länderverzeichnis
  • Für 7 Tage
  • Wassertemperatur
  • Wetterkarte
  • Widgets
  • user-avatar
    Anmelden

    Stündliche Wetter Dorchester

    Heute, 8 Dezember, Sonntag

    Zeit Temperatur Niederschläge Wind Luftdruck Luftfeuchtigkeit
    00:00 +8°C° 0 mm 10 m/S 748 mmHg 86%
    01:00 +9°C° 0.8 mm 10 m/S 747 mmHg 88%
    02:00 +11°C° 0.8 mm 10 m/S 746 mmHg 90%
    03:00 +11°C° 0.8 mm 10 m/S 745 mmHg 91%
    04:00 +10°C° 0.2 mm 9 m/S 745 mmHg 88%
    05:00 +9°C° 0.2 mm 8 m/S 745 mmHg 85%
    06:00 +8°C° 0.2 mm 7 m/S 745 mmHg 81%
    07:00 +6°C° 0 mm 7 m/S 746 mmHg 81%
    08:00 +6°C° 0 mm 7 m/S 746 mmHg 81%
    09:00 +5°C° 0 mm 7 m/S 746 mmHg 81%
    10:00 +6°C° 0.1 mm 8 m/S 746 mmHg 79%
    11:00 +6°C° 0.1 mm 9 m/S 746 mmHg 77%
    12:00 +6°C° 0.1 mm 10 m/S 746 mmHg 75%
    13:00 +6°C° 0.5 mm 9 m/S 745 mmHg 74%
    14:00 +6°C° 0.5 mm 9 m/S 745 mmHg 74%
    15:00 +5°C° 0.5 mm 8 m/S 744 mmHg 74%
    16:00 +5°C° 0 mm 8 m/S 744 mmHg 76%
    17:00 +4°C° 0 mm 8 m/S 743 mmHg 78%
    18:00 +4°C° 0 mm 8 m/S 743 mmHg 80%
    19:00 +3°C° 0.2 mm 9 m/S 742 mmHg 82%
    20:00 +3°C° 0.2 mm 11 m/S 741 mmHg 84%
    21:00 +3°C° 0.2 mm 12 m/S 740 mmHg 86%
    22:00 +3°C° 0.5 mm 11 m/S 739 mmHg 85%
    23:00 +3°C° 0.5 mm 10 m/S 739 mmHg 85%

    Morgen, 9 Dezember, Montag

    Zeit Temperatur Niederschläge Wind Luftdruck Luftfeuchtigkeit
    00:00 +3°C° 0.5 mm 10 m/S 738 mmHg 84%
    01:00 +4°C° 0.4 mm 11 m/S 739 mmHg 82%
    02:00 +4°C° 0.4 mm 12 m/S 739 mmHg 80%
    03:00 +4°C° 0.4 mm 13 m/S 740 mmHg 78%
    04:00 +4°C° 0 mm 13 m/S 741 mmHg 76%
    05:00 +4°C° 0 mm 13 m/S 743 mmHg 73%
    06:00 +4°C° 0 mm 12 m/S 744 mmHg 71%
    07:00 +3°C° 0 mm 11 m/S 747 mmHg 71%
    08:00 +3°C° 0 mm 10 m/S 749 mmHg 71%
    09:00 +3°C° 0 mm 9 m/S 751 mmHg 70%
    10:00 +3°C° 0 mm 9 m/S 752 mmHg 68%
    11:00 +5°C° 0 mm 9 m/S 754 mmHg 66%
    12:00 +5°C° 0 mm 9 m/S 756 mmHg 64%
    13:00 +4°C° 0 mm 7 m/S 757 mmHg 66%
    14:00 +4°C° 0 mm 6 m/S 757 mmHg 67%
    15:00 +5°C° 0 mm 5 m/S 758 mmHg 69%
    16:00 +4°C° 0 mm 4 m/S 759 mmHg 73%
    17:00 +3°C° 0 mm 4 m/S 761 mmHg 77%
    18:00 +3°C° 0 mm 4 m/S 762 mmHg 81%
    19:00 +2°C° 0 mm 3 m/S 762 mmHg 83%
    20:00 +2°C° 0 mm 3 m/S 762 mmHg 85%
    21:00 +2°C° 0 mm 3 m/S 763 mmHg 87%
    22:00 +2°C° 0 mm 3 m/S 763 mmHg 87%
    23:00 +2°C° 0 mm 3 m/S 763 mmHg 87%

    übermorgen, 10 Dezember, Dienstag

    Zeit Temperatur Niederschläge Wind Luftdruck Luftfeuchtigkeit
    00:00 +2°C° 0 mm 3 m/S 763 mmHg 87%
    01:00 +2°C° 0 mm 3 m/S 762 mmHg 88%
    02:00 +1°C° 0 mm 4 m/S 762 mmHg 88%
    03:00 +1°C° 0 mm 4 m/S 761 mmHg 89%
    04:00 +3°C° 0 mm 4 m/S 760 mmHg 89%
    05:00 +3°C° 0 mm 5 m/S 760 mmHg 89%
    06:00 +5°C° 0 mm 5 m/S 759 mmHg 89%
    07:00 +4°C° 0.1 mm 6 m/S 758 mmHg 89%
    08:00 +5°C° 0.1 mm 7 m/S 757 mmHg 88%
    09:00 +6°C° 0.1 mm 9 m/S 756 mmHg 88%
    10:00 +6°C° 0.5 mm 10 m/S 755 mmHg 88%
    11:00 +7°C° 0.5 mm 11 m/S 754 mmHg 89%
    12:00 +7°C° 0.5 mm 12 m/S 753 mmHg 90%
    13:00 +8°C° 0.9 mm 11 m/S 752 mmHg 90%
    14:00 +8°C° 0.9 mm 11 m/S 750 mmHg 90%
    15:00 +9°C° 0.9 mm 11 m/S 748 mmHg 91%
    16:00 +9°C° 0.4 mm 11 m/S 748 mmHg 90%
    17:00 +9°C° 0.4 mm 12 m/S 747 mmHg 89%
    18:00 +10°C° 0.4 mm 12 m/S 747 mmHg 89%
    19:00 +8°C° 1 mm 11 m/S 748 mmHg 88%
    20:00 +6°C° 1 mm 9 m/S 749 mmHg 87%
    21:00 +5°C° 1 mm 7 m/S 749 mmHg 86%
    22:00 +4°C° 0 mm 7 m/S 750 mmHg 84%
    23:00 +3°C° 0 mm 6 m/S 751 mmHg 83%

    11 Dezember, Mittwoch

    Zeit Temperatur Niederschläge Wind Luftdruck Luftfeuchtigkeit
    00:00 +3°C° 0 mm 5 m/S 752 mmHg 81%
    01:00 +3°C° 0 mm 5 m/S 752 mmHg 82%
    02:00 +2°C° 0 mm 5 m/S 752 mmHg 84%
    03:00 +3°C° 0 mm 4 m/S 752 mmHg 85%
    04:00 +3°C° 0 mm 4 m/S 752 mmHg 85%
    05:00 +2°C° 0 mm 5 m/S 752 mmHg 86%
    06:00 +2°C° 0 mm 5 m/S 752 mmHg 86%
    07:00 +2°C° 0 mm 5 m/S 751 mmHg 86%
    08:00 +2°C° 0 mm 5 m/S 751 mmHg 86%
    09:00 +3°C° 0 mm 5 m/S 751 mmHg 87%
    10:00 +3°C° 0 mm 5 m/S 750 mmHg 83%
    11:00 +4°C° 0 mm 6 m/S 750 mmHg 79%
    12:00 +5°C° 0 mm 6 m/S 749 mmHg 75%
    13:00 +4°C° 0.4 mm 6 m/S 749 mmHg 79%
    14:00 +5°C° 0.4 mm 5 m/S 748 mmHg 83%
    15:00 +3°C° 0.4 mm 5 m/S 747 mmHg 87%
    16:00 +3°C° 0 mm 5 m/S 747 mmHg 87%
    17:00 +2°C° 0 mm 5 m/S 747 mmHg 87%
    18:00 +2°C° 0 mm 5 m/S 747 mmHg 87%
    19:00 +2°C° 0 mm 5 m/S 748 mmHg 86%
    20:00 +1°C° 0 mm 5 m/S 749 mmHg 86%
    21:00 +1°C° 0 mm 5 m/S 749 mmHg 86%
    22:00 +1°C° 0 mm 5 m/S 750 mmHg 85%
    23:00 +1°C° 0 mm 5 m/S 750 mmHg 84%

    12 Dezember, Donnerstag

    Zeit Temperatur Niederschläge Wind Luftdruck Luftfeuchtigkeit
    00:00 0°C° 0 mm 4 m/S 750 mmHg 83%
    01:00 0°C° 0 mm 4 m/S 750 mmHg 84%
    02:00 0°C° 0 mm 4 m/S 750 mmHg 85%
    03:00 0°C° 0 mm 4 m/S 750 mmHg 86%
    04:00 0°C° 0 mm 4 m/S 750 mmHg 87%
    05:00 0°C° 0 mm 4 m/S 750 mmHg 87%
    06:00 0°C° 0 mm 5 m/S 750 mmHg 87%
    07:00 +1°C° 0 mm 5 m/S 749 mmHg 87%
    08:00 +2°C° 0 mm 5 m/S 748 mmHg 87%
    09:00 +3°C° 0 mm 6 m/S 748 mmHg 87%
    10:00 +4°C° 0 mm 7 m/S 746 mmHg 86%
    11:00 +5°C° 0 mm 8 m/S 745 mmHg 85%
    12:00 +6°C° 0 mm 9 m/S 743 mmHg 84%
    13:00 +6°C° 1.6 mm 9 m/S 741 mmHg 86%
    14:00 +7°C° 1.6 mm 10 m/S 740 mmHg 88%
    15:00 +7°C° 1.6 mm 10 m/S 738 mmHg 91%
    16:00 +7°C° 0.4 mm 9 m/S 737 mmHg 91%
    17:00 +7°C° 0.4 mm 8 m/S 736 mmHg 90%
    18:00 +8°C° 0.4 mm 7 m/S 735 mmHg 90%
    19:00 +7°C° 0.5 mm 8 m/S 734 mmHg 88%
    20:00 +7°C° 0.5 mm 9 m/S 733 mmHg 86%
    21:00 +8°C° 0.5 mm 10 m/S 732 mmHg 83%
    22:00 +7°C° 0.2 mm 9 m/S 732 mmHg 82%
    23:00 +6°C° 0.2 mm 9 m/S 732 mmHg 80%

    13 Dezember, Freitag

    Zeit Temperatur Niederschläge Wind Luftdruck Luftfeuchtigkeit
    00:00 +5°C° 0.2 mm 9 m/S 732 mmHg 79%
    01:00 +5°C° 0 mm 9 m/S 733 mmHg 78%
    02:00 +3°C° 0 mm 9 m/S 733 mmHg 78%
    03:00 +2°C° 0 mm 9 m/S 734 mmHg 78%
    04:00 +2°C° 0 mm 9 m/S 734 mmHg 77%
    05:00 +2°C° 0 mm 9 m/S 734 mmHg 76%
    06:00 +1°C° 0 mm 9 m/S 735 mmHg 76%
    07:00 +1°C° 0 mm 9 m/S 735 mmHg 76%
    08:00 +1°C° 0 mm 9 m/S 736 mmHg 75%
    09:00 +1°C° 0 mm 9 m/S 737 mmHg 75%
    10:00 +2°C° 0 mm 10 m/S 737 mmHg 74%
    11:00 +3°C° 0 mm 10 m/S 737 mmHg 74%
    12:00 +3°C° 0 mm 10 m/S 737 mmHg 73%
    13:00 +3°C° 0 mm 9 m/S 737 mmHg 74%
    14:00 +4°C° 0 mm 8 m/S 737 mmHg 74%
    15:00 +4°C° 0 mm 7 m/S 737 mmHg 75%
    16:00 +4°C° 0 mm 7 m/S 737 mmHg 78%
    17:00 +3°C° 0 mm 6 m/S 737 mmHg 81%
    18:00 +3°C° 0 mm 5 m/S 737 mmHg 85%
    19:00 +3°C° 0 mm 5 m/S 738 mmHg 85%
    20:00 +3°C° 0 mm 5 m/S 738 mmHg 85%
    21:00 +3°C° 0 mm 6 m/S 738 mmHg 85%
    22:00 +3°C° 0 mm 5 m/S 738 mmHg 83%
    23:00 +3°C° 0 mm 5 m/S 738 mmHg 81%
    Mehr zeigen